Back to catalog

COSMOS 2535 DEB

AliveSSO
NORAD 44631·DEBRIS·🇷🇺 Russia

Launched Jul 10, 2019 from Plesetsk Cosmodrome

Loading…

Next Passes (next 24 hours)

TLE

FreshSource: Space-Track

Epoch: Sep 14, 2026, 13:19 UTC

1 44631U 19039H   26257.55496273  .00005418  00000-0  29055-3 0  9995
2 44631  97.5125 295.8949 0019957 110.7735 249.5638 15.15216162378476

Track COSMOS 2535 DEB in real time with AllMySat

Download on the App Store